STARLINK-4478, 53529

Orbit data source: Space-Track

STARLINK-4478, 53529 is a payload satellite owned by SpaceX/Seattle (US) in LEO that was launched on Fri, 19 Aug 2022 UTC via an FALCON 9 launch vehicle from the Air Force Eastern Test Range (AFETR). Payload-class satellites include a variety of spacecraft equipped with specific instruments for various scientific and technological missions. These include communications satellites like Starlink; space stations such as the ISS; scientific satellites like the Hubble; Earth observation satellites from companies like Planet Labs, Umbra, and HawkEye 360; GPS; miniature CubeSats for education and research; and military/defense satellites.

Loading next visibility...
Identifier
53529, 2022-101C
Orbit
LEO
Country
Flag of USUS
Related business
Manufacturer
SpaceX/Seattle
Mission
Partially operational Commercial Communications
Bus & Motor
STARLINK, Unknown motor
Mass
300 kg wet, ~290 kg dry
Launch date (UTC)
2022-08-19 (4 years ago)
Launch vehicle
FALCON 9
Launch site
Air Force Eastern Test Range (AFETR)
Object type
Payload
Rocket body
Debris
Shape & HBR
Box + 1 Pan, 10.1 m
Radar Cross Section
13.562 m², Large (>1 m²)

Expand to show TLE details & history
Last TLE update: 2 days ago

TLE from 2 days ago
0 STARLINK-4478
1 53529U 22101C   26171.15650315  .00016826  00000-0  91247-3 0  9992
2 53529  53.2154 331.1142 0002125  58.7352 301.3850 15.14696111211673
Epoch: 2026-06-20T03:45Z
TLE epoch observation values (Epoch: 2026-06-20T03:45:21.872Z)
Latitude
-0.00006°
Longitude
6.39786°
Altitude
522.037 km
Speed
7.604 km/s
True Right ascension
22h 04m 27s
True Declination
0° 00' 00"
Sunlit
Object was in full shadow at epoch
Visualization orbit readout
Latitude
Unknown
Longitude
Unknown
Altitude
Unknown
Speed
Unknown
Apparent Right ascension
Unknown
Apparent Declination
Unknown
Sunlit
N/A
Visualization observer readout
Local Sidereal Time
21:27:49
Azimuth
Unknown
Elevation
Unknown
Doppler factor
Unknown
Orbital elements
Apogee altitude
523.613 km
Perigee altitude
520.681 km
Semi-major axis
6,900.284 km
Eccentricity
0.00021
Inclination
53.2154°
RAAN
331.1142°
Arg. of periapsis
58.7352°
True anomaly
301.36421°
Mean anomaly
301.385°
Eccentric anomaly
301.3746°
Mean motion
3.78654 °/min
Orbital period
95.07 mins
BSTAR
0.00091247
Loading maneuver chart data...
Computing Atmospheric mass density...
Loading historical data...
Loading historical data...
Loading historical data...
Loading historical data...
Loading historical data...
Loading historical data...
Loading historical data...

Documentation

Showing up to 5 results
|